K6GMW Weather Reports


time (UTC)temp
C
wind
direction
speed
KPH
gust
KPH
rain 1hr
cm
rain 24hr
cm
rain mn
cm
humidity
%
barometer
mb
20260509201114 27 93 3.2 6.4 0.00 0.03 0.03 74 1010.6
20260509200609 27 32 0.0 11.3 0.00 0.03 0.03 73 1010.9
20260509200105 28 156 6.4 9.7 0.00 0.03 0.03 72 1010.8
20260509195601 29 19 3.2 6.4 0.00 0.03 0.03 70 1010.7
20260509195055 29 8 1.6 8.0 0.00 0.03 0.03 72 1010.7
20260509194555 28 174 3.2 6.4 0.00 0.03 0.03 74 1011.0
20260509194053 27 283 3.2 12.9 0.00 0.03 0.03 78 1011.1
20260509193548 27 218 3.2 9.7 0.00 0.03 0.03 74 1011.3
20260509193045 28 187 4.8 6.4 0.00 0.03 0.03 73 1011.1
20260509192541 28 172 4.8 9.7 0.00 0.03 0.03 72 1011.5
20260509192036 28 158 4.8 6.4 0.00 0.03 0.03 74 1011.3
20260509191531 28 155 8.0 9.7 0.00 0.03 0.03 73 1011.3
20260509191027 27 213 9.7 9.7 0.00 0.03 0.03 77 1011.4
20260509190524 27 147 9.7 17.7 0.00 0.03 0.03 75 1011.3
20260509190022 27 146 3.2 4.8 0.00 0.03 0.03 74 1011.4
20260509185519 27 167 3.2 3.2 0.00 0.03 0.03 74 1011.6
20260509185015 26 0 3.2 11.3 0.00 0.03 0.03 76 1011.5
20260509184514 26 258 4.8 4.8 0.00 0.03 0.03 76 1011.6
20260509184010 26 328 3.2 8.0 0.00 0.03 0.03 77 1011.7
20260509183505 26 341 6.4 9.7 0.00 0.03 0.03 78 1011.7
20260509183001 26 176 3.2 8.0 0.00 0.03 0.03 78 1011.6
20260509182458 27 169 3.2 9.7 0.00 0.03 0.03 80 1011.7
20260509181955 26 346 3.2 6.4 0.00 0.03 0.03 81 1011.7
20260509181453 26 315 3.2 6.4 0.00 0.03 0.03 81 1011.8
20260509180950 26 338 4.8 8.0 0.00 0.03 0.03 80 1011.9
20260509180445 25 299 3.2 4.8 0.00 0.03 0.03 82 1011.8
20260509175943 25 237 1.6 1.6 0.00 0.03 0.03 82 1012.1
20260509175439 25 86 3.2 3.2 0.00 0.03 0.03 82 1012.0
20260509174935 25 224 4.8 4.8 0.00 0.03 0.03 83 1012.1
20260509174432 25 309 3.2 4.8 0.00 0.03 0.03 82 1012.1
20260509173927 25 236 3.2 6.4 0.00 0.03 0.03 81 1012.1
20260509173427 26 310 4.8 6.4 0.00 0.03 0.03 79 1012.1
20260509172924 26 234 1.6 4.8 0.00 0.03 0.03 80 1012.2
20260509172421 26 182 3.2 4.8 0.00 0.03 0.03 82 1012.1
20260509171916 26 161 4.8 4.8 0.00 0.03 0.03 79 1012.1
20260509171413 26 313 4.8 4.8 0.00 0.03 0.03 82 1012.2
20260509170909 26 129 0.0 4.8 0.00 0.03 0.03 81 1012.2
20260509170404 25 284 3.2 4.8 0.00 0.03 0.03 82 1012.3
20260509165901 25 269 1.6 3.2 0.00 0.03 0.03 83 1012.1
20260509165355 25 215 3.2 3.2 0.00 0.03 0.03 84 1012.2
20260509164851 25 315 0.0 3.2 0.00 0.03 0.03 84 1012.4
20260509164347 25 261 1.6 3.2 0.00 0.03 0.03 84 1012.3
20260509163843 24 269 0.0 3.2 0.00 0.03 0.03 85 1012.4
20260509163340 24 222 6.4 6.4 0.00 0.03 0.03 85 1012.4
20260509162839 24 269 3.2 4.8 0.00 0.03 0.03 87 1012.2
20260509162338 23 208 3.2 3.2 0.00 0.03 0.03 88 1012.2
20260509161834 23 174 3.2 4.8 0.00 0.03 0.03 88 1012.2
20260509161331 23 171 3.2 3.2 0.00 0.03 0.03 88 1012.3
20260509160826 23 246 3.2 6.4 0.00 0.03 0.03 88 1012.2
20260509160322 23 189 3.2 3.2 0.00 0.03 0.03 88 1012.2
20260509155818 23 212 3.2 6.4 0.00 0.03 0.03 89 1012.2
20260509155314 23 184 3.2 6.4 0.00 0.03 0.03 90 1012.0
20260509154811 23 159 4.8 6.4 0.00 0.03 0.03 91 1012.1
20260509154308 22 178 3.2 6.4 0.00 0.03 0.03 92 1012.0
20260509153804 22 142 0.0 6.4 0.00 0.03 0.03 92 1012.1
20260509153300 22 170 3.2 4.8 0.00 0.03 0.03 93 1011.9
20260509152757 22 127 1.6 6.4 0.00 0.03 0.03 94 1012.0
20260509152253 22 165 3.2 8.0 0.00 0.03 0.03 94 1012.0
20260509151751 22 152 4.8 6.4 0.00 0.03 0.03 96 1012.0
20260509151247 22 181 4.8 6.4 0.00 0.03 0.03 97 1011.9
20260509150746 22 167 3.2 4.8 0.00 0.03 0.03 97 1012.0
20260509150244 22 320 0.0 6.4 0.00 0.03 0.03 97 1011.9
20260509145741 22 240 0.0 3.2 0.00 0.03 0.03 98 1011.9
20260509145240 21 159 4.8 6.4 0.00 0.03 0.03 98 1012.2
20260509144737 21 202 3.2 3.2 0.00 0.03 0.03 98 1012.1
20260509144234 21 230 0.0 3.2 0.00 0.03 0.03 98 1012.2
20260509143731 21 281 3.2 3.2 0.00 0.03 0.03 98 1012.1
20260509143228 21 242 0.0 3.2 0.00 0.03 0.03 98 1012.0
20260509142724 21 151 6.4 6.4 0.00 0.03 0.03 98 1012.2
20260509142221 21 151 3.2 3.2 0.00 0.03 0.03 98 1012.3
20260509141716 21 202 3.2 3.2 0.00 0.03 0.03 98 1012.3
20260509141214 21 205 1.6 3.2 0.00 0.03 0.03 98 1012.4
20260509140710 21 247 3.2 3.2 0.00 0.03 0.03 98 1012.2
20260509140208 21 269 3.2 4.8 0.00 0.03 0.03 98 1012.4
20260509135705 21 268 1.6 3.2 0.00 0.03 0.03 98 1012.4
20260509135203 21 268 1.6 3.2 0.00 0.03 0.03 98 1012.5
20260509134659 21 260 0.0 3.2 0.00 0.03 0.03 98 1012.4
20260509134157 20 280 0.0 1.6 0.00 0.03 0.03 98 1012.6
20260509133654 20 284 0.0 3.2 0.00 0.03 0.03 98 1012.4
20260509133151 20 282 1.6 3.2 0.00 0.03 0.03 98 1012.6
20260509132649 20 269 0.0 1.6 0.00 0.03 0.03 98 1012.5
20260509132147 20 307 1.6 3.2 0.00 0.03 0.03 98 1012.5
20260509131643 20 218 0.0 1.6 0.00 0.03 0.03 98 1012.5
20260509131140 20 333 0.0 3.2 0.00 0.03 0.03 98 1012.7
20260509130636 20 234 0.0 1.6 0.00 0.03 0.03 98 1012.5
20260509130132 20 240 0.0 3.2 0.00 0.03 0.03 98 1012.6
20260509125629 20 213 3.2 3.2 0.00 0.03 0.03 98 1012.6
20260509125126 20 231 3.2 4.8 0.00 0.03 0.03 98 1012.5
20260509124622 20 231 3.2 4.8 0.00 0.03 0.03 98 1012.7
20260509124119 20 262 3.2 4.8 0.00 0.03 0.03 98 1012.6
20260509123617 20 251 3.2 4.8 0.00 0.03 0.03 98 1012.3
20260509123114 20 254 3.2 4.8 0.00 0.03 0.03 98 1012.2
20260509122609 20 263 1.6 3.2 0.00 0.03 0.03 98 1012.2
20260509122107 20 200 3.2 3.2 0.00 0.03 0.03 98 1011.9
20260509121603 20 222 3.2 3.2 0.00 0.03 0.03 98 1012.1
20260509121101 20 221 0.0 3.2 0.00 0.03 0.03 98 1011.7
20260509120559 20 229 0.0 1.6 0.00 0.03 0.03 98 1011.8
20260509120057 20 204 1.6 3.2 0.00 0.03 0.03 98 1011.9
20260509115554 19 226 3.2 3.2 0.00 0.03 0.03 98 1011.8
20260509115052 19 227 0.0 1.6 0.00 0.03 0.03 98 1011.7
20260509114550 19 231 0.0 3.2 0.00 0.03 0.03 98 1011.9
20260509114048 20 283 0.0 3.2 0.00 0.03 0.03 98 1011.6
20260509113546 20 233 3.2 3.2 0.00 0.03 0.03 98 1011.4
20260509113044 20 213 3.2 3.2 0.00 0.03 0.03 98 1011.4
20260509112540 19 196 1.6 3.2 0.00 0.03 0.03 98 1011.3
20260509112037 19 210 0.0 3.2 0.00 0.03 0.03 98 1011.1
20260509111534 19 229 0.0 3.2 0.00 0.03 0.03 98 1011.0
20260509111031 19 215 1.6 3.2 0.00 0.03 0.03 97 1010.9
20260509110527 19 218 0.0 3.2 0.00 0.03 0.03 97 1010.7
20260509110025 19 247 0.0 1.6 0.00 0.03 0.03 97 1010.7
20260509105523 19 227 3.2 3.2 0.05 0.03 0.03 97 1010.7
20260509105020 18 142 0.0 0.0 0.05 0.03 0.03 97 1010.7
20260509104517 18 249 0.0 1.6 0.00 0.03 0.03 97 1010.9
20260509104014 18 231 0.0 1.6 0.00 0.03 0.03 97 1010.7
20260509103512 18 215 0.0 1.6 0.00 0.03 0.03 97 1011.0
20260509103010 18 231 1.6 3.2 0.00 0.03 0.03 97 1010.8
20260509102507 18 226 3.2 3.2 0.00 0.03 0.03 97 1010.7
20260509102004 18 204 0.0 1.6 0.00 0.03 0.03 97 1010.5
20260509101500 18 227 3.2 3.2 0.00 0.03 0.03 97 1010.7
20260509100957 18 224 3.2 3.2 0.00 0.03 0.03 97 1010.7
20260509100454 18 183 3.2 4.8 0.00 0.03 0.03 97 1010.8
20260509095951 18 153 4.8 6.4 0.00 0.03 0.03 97 1010.6
20260509095448 18 165 3.2 4.8 0.00 0.03 0.03 97 1010.9
20260509094945 18 152 6.4 8.0 0.00 0.03 0.03 97 1010.7
20260509094441 18 149 6.4 6.4 0.00 0.03 0.03 97 1010.7
20260509093939 18 190 3.2 4.8 0.00 0.03 0.03 97 1011.0
20260509093436 18 184 1.6 3.2 0.00 0.03 0.03 97 1010.9
20260509092934 18 180 1.6 3.2 0.00 0.03 0.03 97 1010.9
20260509092432 18 186 0.0 1.6 0.00 0.03 0.03 97 1010.8
20260509091930 18 228 1.6 1.6 0.00 0.03 0.03 97 1010.5
20260509091427 18 189 0.0 1.6 0.00 0.03 0.03 97 1010.7
20260509090924 18 315 0.0 3.2 0.00 0.03 0.03 97 1011.1
20260509090421 18 330 1.6 1.6 0.00 0.03 0.03 97 1010.7
20260509085919 17 185 1.6 3.2 0.00 0.03 0.03 96 1010.9
20260509085416 17 198 1.6 3.2 0.00 0.03 0.03 96 1011.3
20260509084912 17 191 3.2 3.2 0.00 0.03 0.03 96 1011.3
20260509084409 17 238 3.2 3.2 0.00 0.03 0.03 96 1011.1
20260509083906 17 253 3.2 3.2 0.00 0.03 0.03 96 1011.3
20260509083403 17 247 3.2 3.2 0.00 0.03 0.03 96 1011.3
20260509082900 17 213 1.6 3.2 0.00 0.03 0.03 96 1011.4
20260509082357 17 201 1.6 3.2 0.00 0.03 0.03 96 1011.3
20260509081854 17 224 1.6 3.2 0.00 0.03 0.03 96 1011.4
20260509081351 17 322 0.0 1.6 0.00 0.03 0.03 96 1011.0
20260509080849 17 274 0.0 3.2 0.00 0.03 0.03 96 1011.1
20260509080346 17 171 3.2 3.2 0.00 0.03 0.03 95 1011.0
20260509075844 17 208 3.2 4.8 0.00 0.03 0.03 95 1011.3
20260509075341 17 245 3.2 3.2 0.00 0.03 0.03 95 1011.1
20260509074838 17 267 1.6 3.2 0.00 0.03 0.03 95 1011.3
20260509074336 17 274 3.2 3.2 0.00 0.03 0.03 95 1011.3
20260509073832 17 236 4.8 6.4 0.00 0.03 0.03 95 1011.4
20260509073329 17 297 4.8 8.0 0.00 0.03 0.03 95 1011.7
20260509072825 17 312 3.2 4.8 0.00 0.03 0.03 95 1011.6
20260509072322 17 339 4.8 4.8 0.00 0.03 0.03 95 1011.5
20260509071819 17 156 0.0 4.8 0.00 0.03 0.03 95 1011.3
20260509071316 17 194 4.8 11.3 0.00 0.03 0.03 95 1011.4
20260509070813 17 217 4.8 6.4 0.00 0.03 0.03 95 1011.6
20260509070309 17 259 3.2 6.4 0.00 0.03 0.03 95 1011.9
20260509065806 17 222 4.8 6.4 0.00 0.03 0.03 95 1011.7
20260509065305 17 207 3.2 3.2 0.00 0.03 0.03 94 1011.8
20260509064758 17 324 0.0 3.2 0.00 0.03 0.03 94 1011.8
20260509064255 17 193 0.0 3.2 0.00 0.03 0.03 94 1011.9
20260509063753 18 193 0.0 4.8 0.00 0.03 0.03 94 1011.8
20260509063249 18 233 4.8 9.7 0.00 0.03 0.03 94 1011.8
20260509062747 18 206 4.8 8.0 0.00 0.03 0.03 94 1011.2
20260509062243 18 214 6.4 9.7 0.00 0.03 0.03 95 1011.4
20260509061740 18 210 11.3 16.1 0.05 0.03 0.03 95 1011.7
20260509061238 18 145 4.8 8.0 0.05 0.03 0.03 95 1011.4
20260509060735 18 175 9.7 16.1 0.23 0.00 0.00 95 1011.2
20260509060232 18 165 12.9 17.7 1.14 0.00 0.00 95 1011.0
20260509055727 18 206 12.9 20.9 1.98 0.89 0.89 95 1011.8
20260509055224 18 129 8.0 20.9 1.68 0.76 0.76 94 1012.0
20260509054720 18 144 8.0 9.7 1.68 0.56 0.56 93 1013.3
20260509054217 18 129 4.8 8.0 1.93 0.48 0.48 93 1013.9
20260509053716 18 183 6.4 9.7 0.71 0.25 0.25 92 1014.3
20260509053212 19 257 4.8 6.4 0.23 0.18 0.18 90 1013.8
20260509052710 19 151 3.2 3.2 0.18 0.15 0.15 89 1013.5
20260509052208 19 180 3.2 6.4 0.48 0.13 0.13 88 1012.9
20260509051705 20 120 3.2 9.7 0.66 0.10 0.10 86 1013.3
20260509051203 20 99 3.2 12.9 0.13 0.03 0.03 83 1013.3
20260509050700 20 268 8.0 9.7 0.00 0.00 0.00 82 1013.7
20260509050156 20 21 3.2 3.2 0.00 0.00 0.00 81 1012.9
20260509045653 20 209 0.0 1.6 0.00 0.00 0.00 81 1012.6
20260509045150 20 137 4.8 6.4 0.00 0.00 0.00 81 1012.5
20260509044647 20 196 0.0 3.2 0.00 0.00 0.00 81 1012.7
20260509044145 20 36 1.6 4.8 0.00 0.00 0.00 80 1012.6
20260509043641 20 217 0.0 1.6 0.00 0.00 0.00 80 1012.5
20260509043137 20 152 1.6 3.2 0.00 0.00 0.00 80 1012.2
20260509042634 20 151 3.2 4.8 0.00 0.00 0.00 80 1012.3
20260509042129 20 145 6.4 8.0 0.00 0.00 0.00 80 1012.1
20260509041626 20 139 3.2 3.2 0.00 0.00 0.00 80 1011.9
20260509041124 20 150 0.0 1.6 0.00 0.00 0.00 80 1012.0
20260509040622 20 136 1.6 3.2 0.00 0.00 0.00 80 1012.3
20260509040119 20 162 1.6 3.2 0.00 0.00 0.00 79 1012.1
20260509035615 20 129 0.0 1.6 0.00 0.00 0.00 79 1012.2
20260509035112 20 142 0.0 3.2 0.00 0.00 0.00 79 1012.0
20260509034610 20 106 3.2 6.4 0.00 0.00 0.00 79 1011.7
20260509034107 20 137 8.0 9.7 0.00 0.00 0.00 78 1011.8
20260509033604 21 148 4.8 8.0 0.00 0.00 0.00 79 1011.7
20260509033101 21 127 3.2 6.4 0.00 0.00 0.00 78 1011.8
20260509032558 21 180 0.0 3.2 0.00 0.00 0.00 78 1011.7
20260509032055 21 133 3.2 6.4 0.00 0.00 0.00 78 1011.7
20260509031553 21 148 6.4 12.9 0.00 0.00 0.00 78 1011.4
20260509031050 21 140 8.0 12.9 0.00 0.00 0.00 78 1011.4
20260509030548 21 144 4.8 8.0 0.00 0.00 0.00 79 1011.5
20260509030044 21 141 3.2 6.4 0.00 0.00 0.00 79 1011.6
20260509025541 21 144 3.2 4.8 0.00 0.00 0.00 79 1011.5
20260509025036 21 143 4.8 6.4 0.00 0.00 0.00 79 1011.4
20260509024532 21 154 3.2 8.0 0.00 0.00 0.00 79 1011.5
20260509024029 21 138 3.2 6.4 0.00 0.00 0.00 79 1011.2
20260509023527 21 143 6.4 9.7 0.00 0.00 0.00 78 1011.1
20260509023023 21 139 6.4 9.7 0.00 0.00 0.00 78 1011.2
20260509022520 21 142 4.8 6.4 0.00 0.00 0.00 78 1011.2
20260509022018 21 142 6.4 8.0 0.00 0.00 0.00 78 1011.2
20260509021514 21 140 0.0 6.4 0.00 0.00 0.00 78 1010.8
20260509021011 21 121 6.4 8.0 0.00 0.00 0.00 78 1011.0
20260509020510 21 158 11.3 16.1 0.00 0.00 0.00 78 1010.7
20260509020006 20 129 8.0 8.0 0.00 0.00 0.00 79 1010.7
20260509015505 20 145 3.2 4.8 0.00 0.00 0.00 79 1010.9
20260509015002 20 130 1.6 4.8 0.00 0.00 0.00 80 1010.6
20260509014459 20 132 0.0 0.0 0.00 0.00 0.00 78 1010.7
20260509013954 20 156 0.0 3.2 0.00 0.00 0.00 77 1010.5
20260509013452 20 156 3.2 4.8 0.00 0.00 0.00 78 1010.6
20260509012947 20 152 3.2 4.8 0.00 0.00 0.00 79 1010.3
20260509012444 21 141 3.2 4.8 0.00 0.00 0.00 78 1010.2
20260509011941 21 146 1.6 1.6 0.00 0.00 0.00 77 1010.3
20260509011439 21 37 0.0 1.6 0.00 0.00 0.00 77 1010.3
20260509010936 21 195 0.0 1.6 0.00 0.00 0.00 75 1010.1
20260509010434 22 148 0.0 1.6 0.00 0.00 0.00 75 1010.1
20260509005931 22 217 0.0 0.0 0.00 0.00 0.00 73 1010.0
20260509005429 22 139 3.2 6.4 0.00 0.00 0.00 72 1010.0
20260509004928 22 139 4.8 4.8 0.00 0.00 0.00 71 1009.8
20260509004425 22 180 1.6 3.2 0.00 0.00 0.00 72 1010.2
20260509003923 23 163 3.2 4.8 0.00 0.00 0.00 72 1010.2
20260509003421 23 150 3.2 3.2 0.00 0.00 0.00 71 1010.3
20260509002917 23 174 1.6 3.2 0.00 0.00 0.00 69 1010.3
20260509002416 23 322 0.0 3.2 0.00 0.00 0.00 68 1010.4
20260509001912 24 180 0.0 1.6 0.00 0.00 0.00 65 1010.3
20260509001409 24 196 0.0 3.2 0.00 0.00 0.00 65 1010.6
20260509000906 25 158 0.0 1.6 0.00 0.00 0.00 63 1010.5
20260509000404 25 355 3.2 3.2 0.00 0.00 0.00 63 1010.5
20260508235859 25 206 0.0 3.2 0.00 0.00 0.00 61 1010.4
20260508235357 24 211 1.6 3.2 0.00 0.00 0.00 63 1010.3
20260508234854 25 170 3.2 6.4 0.00 0.00 0.00 62 1010.2
20260508234350 24 200 3.2 9.7 0.00 0.00 0.00 65 1009.8
20260508233849 24 150 8.0 17.7 0.00 0.00 0.00 64 1009.6
20260508233348 23 161 6.4 14.5 0.00 0.00 0.00 65 1009.2
20260508232844 23 142 8.0 11.3 0.00 0.00 0.00 66 1009.0
20260508232340 23 149 9.7 16.1 0.00 0.00 0.00 65 1008.9
20260508231839 23 160 9.7 24.1 0.00 0.00 0.00 64 1008.8
20260508231335 23 139 20.9 25.7 0.00 0.00 0.00 64 1008.5
20260508230832 23 136 8.0 9.7 0.00 0.00 0.00 65 1009.0
20260508230328 23 146 3.2 8.0 0.00 0.00 0.00 62 1010.8
20260508225826 23 195 4.8 9.7 0.00 0.00 0.00 65 1010.9
20260508225322 23 125 11.3 16.1 0.00 0.00 0.00 63 1010.0
20260508224820 23 140 1.6 3.2 0.00 0.00 0.00 61 1010.5
20260508224318 24 143 6.4 6.4 0.00 0.00 0.00 62 1010.9
20260508223815 24 163 3.2 6.4 0.00 0.00 0.00 62 1011.2
20260508223312 24 147 3.2 3.2 0.00 0.00 0.00 61 1010.8
20260508222810 24 161 3.2 6.4 0.00 0.00 0.00 62 1011.5
20260508222307 24 161 4.8 6.4 0.00 0.00 0.00 61 1011.6
20260508221803 25 187 4.8 8.0 0.00 0.00 0.00 56 1011.5
20260508221259 25 180 3.2 6.4 0.00 0.00 0.00 56 1011.5
20260508220755 25 186 6.4 8.0 0.00 0.00 0.00 55 1011.3
20260508220252 25 175 6.4 8.0 0.00 0.00 0.00 54 1011.1
20260508215748 25 132 9.7 9.7 0.00 0.00 0.00 53 1011.1
20260508215245 25 143 9.7 12.9 0.00 0.00 0.00 51 1011.0
20260508214742 25 147 3.2 8.0 0.00 0.00 0.00 53 1011.0
20260508214239 25 146 6.4 9.7 0.00 0.00 0.00 50 1011.0
20260508213736 25 162 6.4 9.7 0.00 0.00 0.00 54 1010.9
20260508213233 25 141 6.4 11.3 0.00 0.00 0.00 53 1010.9
20260508212729 26 146 6.4 12.9 0.00 0.00 0.00 51 1011.1
20260508212225 26 161 9.7 9.7 0.00 0.00 0.00 52 1010.9
20260508211721 26 152 3.2 4.8 0.00 0.00 0.00 52 1011.1
20260508211217 26 155 3.2 6.4 0.00 0.00 0.00 52 1011.1
20260508210715 26 151 8.0 11.3 0.00 0.00 0.00 51 1011.0
20260508210212 26 157 4.8 8.0 0.00 0.00 0.00 51 1011.0
20260508205708 26 168 3.2 11.3 0.00 0.00 0.00 51 1011.1
20260508205205 27 105 4.8 6.4 0.00 0.00 0.00 49 1011.2
20260508204701 26 158 4.8 8.0 0.00 0.00 0.00 47 1011.3
20260508204157 26 139 4.8 8.0 0.00 0.00 0.00 47 1011.2
20260508203653 26 153 4.8 11.3 0.00 0.00 0.00 47 1011.4
20260508203150 26 130 16.1 17.7 0.00 0.00 0.00 47 1011.4
20260508202646 26 189 6.4 14.5 0.00 0.00 0.00 45 1011.6
20260508202144 26 168 9.7 14.5 0.00 0.00 0.00 49 1011.2
20260508201640 25 155 6.4 16.1 0.00 0.00 0.00 50 1011.3